Location: São Paulo
(23.5507°S, 46.6334°W)
Time: 10:02:29
(UTC-03:00)

Explorer 7 - Pass Details

Date: 21 February 2026
Orbit: 430 x 541 km, 50.2° (Epoch: 11 March)

Event Time Altitude Azimuth Distance (km) Brightness Sun altitude
Rises 10:10:22 0° 243° (WSW) 2,493 9.8 56.4°
Reaches altitude 10° 10:13:03 10° 262° (W) 1,589 9.0 57.0°
Maximum altitude 10:15:29 17° 305° (NW) 1,188 8.5 57.5°
Drops below altitude 10° 10:17:52 10° 349° (N) 1,544 9.3 58.1°
Sets 10:20:27 0° 10° (N) 2,392 10.3 58.6°
